Location: Boca de Tacagua
(10.5333°N, 66.9833°W)
Time: 05:28:31
(UTC+00:00)

Ariane H10-3 - Pass Details

Date: 05 July 2022
Orbit: 475 x 36438 km, 5.2° (Epoch: 12 August)

Event Time Altitude Azimuth Distance (km) Brightness Sun altitude
Rises 19:45:20 0° 261° (W) 5,042 6.8 42.4°
Reaches altitude 10° 19:47:13 10° 260° (W) 4,642 6.9 42.0°
Maximum altitude 02:32:33 78° 171° (S) 34,010 9.8 -45.6°
Drops below altitude 10° 06:02:28 10° 110° (ESE) 6,906 6.9 -50.1°
Sets 06:05:20 0° 107° (ESE) 7,027 7.1 -49.7°
